Find Starlink 35235

NORAD ID: 65682 Int'l Des: 2025-212 Owner: SPXS Country: US Constellation: starlink operational
LEOCIRCULAR

現在のビュー

3D地球を読み込み中...

About Starlink 35235

Starlink 35235 (NORAD 65682) is a starlink constellation satellite (v2 mini) launched Sep 21, 2025 by SPXS of US. It operates in LEO, CIRCULAR orbit with a mass of 575.00 kg.

次回通過

Passes for default location (London). Set your location on the main map for personalized predictions.

高度履歴

Loading altitude history...

軌道要素

1 65682U 25212G 26264.12822278 .00020111 00000-0 60436-3 0 9998
2 65682 53.1567 153.0893 0000880 115.0784 245.0310 15.34420412 57189
Epoch: Sep 21, 2026 • Age: 16 hours

現在のステータス

高度 466.2 km
遠地点 / 近地点 N/A
速度 7.63 km/s
衛星直下点 -11.85°S, 139.27°W
打ち上げ日 Sep 21, 2025
運用期間 0.9 years
タイプ internet

技術仕様

分類 Payload
質量 575.00 kg
乾燥質量 530.00 kg
長さ 0.30 m
スパン 29.00 m
形状 ? Box + pan
製造者 SPXS
バスタイプ Starlink V2MO
フェーズステータス In Orbit
所有者/国 SPXS/US

Most Searched